Regional Weather Roundup
Issued by NWS

Home | Current Version | Previous Version | Text Only | Print | Product List | Glossary On
Versions: 1 2 3 4 5 6 7 8 9 10 11 12 13 14 15 16 17 18 19 20 21 22 23 24 25 26 27 28 29 30 31 32 33 34 35 36 37 38 39 40 41 42 43 44 45 46 47 48 49 50
000
ASUS45 KBOU 200910
RWRCO

WEATHER ROUNDUP FOR COLORADO
NATIONAL WEATHER SERVICE DENVER/BOULDER CO
300 AM MDT THU JUN 20 2019

NOTE: "FAIR" INDICATES FEW OR NO CLOUDS BELOW 12000 FEET WITH NO
SIGNIFICANT WEATHER AND/OR OBSTRUCTIONS TO VISIBILITY.

COZ001>005-013-030-031-201000-
...NORTHWEST COLORADO...

CITY           SKY/WX    TMP DP  RH WIND       PRES   REMARKS
CRAIG          MOCLDY    53  47  79 SE6       29.95R
HAYDEN         MOCLDY    51  47  86 NE5       29.98R
MEEKER         FAIR      50  42  74 SE5       29.95S
RANGELY        FAIR      53  42  68 E3        29.88R
RABBIT EARS PA NOT AVBL
STEAMBOAT SPGS FAIR      52  48  89 CALM      29.97S
WALDEN         MOCLDY    50  39  66 SW6       30.05S
$$

COZ006>008-011-201000-
...WEST CENTRAL VALLEYS...

CITY           SKY/WX    TMP DP  RH WIND       PRES   REMARKS
GRAND JUNCTION FAIR      65  40  39 E12       29.85R
MONTROSE       FAIR      61  37  41 E9        29.95F
EAGLE          FAIR      49  42  77 CALM      29.99F
RIFLE          FAIR      54  46  74 CALM      29.91S
DELTA          FAIR      60  37  41 E7        29.92S
NUCLA          FAIR      59  37  44 E10       30.00S
$$

COZ017>023-064>068-201000-
...SOUTHWEST COLORADO...

CITY           SKY/WX    TMP DP  RH WIND       PRES   REMARKS
DURANGO        FAIR      50  36  58 N3        30.06F
CORTEZ         FAIR      52  40  63 E8        30.01S
PAGOSA SPRINGS FAIR      49  35  58 CALM      30.14S
TELLURIDE      MOCLDY    54  36  50 CALM      30.23S
WOLF CREEK PAS FAIR      41  28  60 SW10      30.44F
$$

COZ009-010-012-014-032>034-037-058>063-201000-
...CENTRAL COLORADO...

CITY           SKY/WX    TMP DP  RH WIND       PRES   REMARKS
ASPEN          CLOUDY    49  36  61 S7        30.05F
BUENA VISTA    FAIR      52  32  46 CALM      30.06S
COPPER MTN     FAIR      46  28  49 W29G47    30.29F
BERTHOUD PASS  FAIR      37  30  75 W39G56    30.27R
COTTONWOOD PAS FAIR      54  28  37 W3        30.18S
GUNNISON       FAIR      45  38  76 CALM      30.11S
GRANBY         FAIR      47  40  76 NE5       30.06S
KREMMLING      FAIR      48  43  81 CALM      30.02S
LEADVILLE      FAIR      50  29  44 NE8       30.18S
MONARCH PASS   FAIR      41  30  65 MISG      30.41F
SALIDA         FAIR      60  34  37 SW13      30.12S
SUNLIGHT       FAIR      43  30  61 SW15G32   30.26F
WILKERSON PASS FAIR      45  27  49 W14G24    30.27R
$$

COZ069>075-201000-
...SAN LUIS VALLEY/SANGRE DE CRISTO MOUNTAINS...

CITY           SKY/WX    TMP DP  RH WIND       PRES   REMARKS
ALAMOSA        FAIR      47  36  65 SW9       30.08F
DEL NORTE      FAIR      51  32  48 W8        30.11F
LA VETA PASS   NOT AVBL
SAGUACHE       FAIR      45  34  65 CALM      30.11S
$$

COZ035-036-038>040-201000-
...NORTHERN COLORADO FRONT RANGE...

CITY           SKY/WX    TMP DP  RH WIND       PRES   REMARKS
DENVER INTL AP FAIR      64  44  48 N12       29.87R
AURORA         FAIR      65  38  36 NW3       29.88R
FRONT RANGE AP FAIR      65  44  46 N10       29.88R
ERIE MUNI ARPT FAIR      63  41  44 CALM      29.90R
BOULDER MUN AP FAIR      66  39  37 SE3       29.84S
CENTENNIAL     FAIR      65  37  35 VRB3      29.88R
BROOMFIELD     FAIR      64  39  39 CALM      29.88R
FORT COLLINS   FAIR      67  45  45 NW10      29.84R
LONGMONT       FAIR      70  39  33 NW9G23    29.85S
$$

COZ041-046-047-076>085-087-088-201000-
...PIKES PEAK/PALMER DIVIDE AND SOUTHERN FOOTHILLS...

CITY           SKY/WX    TMP DP  RH WIND       PRES   REMARKS
COLO. SPRINGS  MOCLDY    55  44  66 N5        29.93S
A. F. ACADEMY  FAIR      51  43  72 N6        29.92S
SCHRIEVER AFB  NOT AVBL
CHEYENNE MTN   NOT AVBL
ELLICOTT         N/A    N/A N/A N/A CALM      29.90F
FALCON         FAIR      52  38  58 N6        29.98S
FORT CARSON    FAIR      53  43  69 W3        29.88S
LIMON          FAIR      54  48  80 E3        29.86S
MONUMENT HILL  FAIR      54  36  50 SW12      29.98S
CANON CITY     FAIR      55  37  50 W7        29.87S
WALSENBURG     NOT AVBL
TRINIDAD       FAIR      60  38  43 SW15      29.92F
$$

COZ042>045-048>051-090-091-201000-
...NORTHEAST COLORADO...

CITY           SKY/WX    TMP DP  RH WIND       PRES   REMARKS
GREELEY ARPT   FAIR      65  44  46 NW10      29.82R
AKRON          FAIR      61  51  70 SW6       29.82F
BURLINGTON     FAIR      64  51  62 S16       29.77F
WRAY           LGT RAIN  64  54  68 W14G22    29.78R
YUMA           LGT RAIN  61  43  51 W10       29.80R
STERLING       CLOUDY    61  54  77 CALM      29.77R
HOLYOKE        FAIR      63  54  72 SW9       29.74R
FORT MORGAN    FAIR      60  43  52 W9        29.80S
$$

COZ086-089-092>099-201000-
...SOUTHEAST COLORADO...

CITY           SKY/WX    TMP DP  RH WIND       PRES   REMARKS
PUEBLO         FAIR      57  49  74 SW6       29.83S
LA JUNTA       FAIR      62  47  57 W13       29.79F
LAMAR          FAIR      59  53  80 W5        29.74F
SPRINGFIELD      N/A     58  53  84 SW7       29.83F
$$




USA.gov is the U.S. government's official web portal to all federal, state and local government web resources and services.